QTR788 OMDB-OTHH

Flight info

Callsign QTR788
Flight time 0h 53m
Altitude 22000
Route NABIX P699 OXARI M430 TOSNA
Aircraft A320/M-SDE3FGHIRWY/LB1

Departure

Time 2026-05-03 20:18
Airport Dubai International Airport (OMDB)

Arrival

Time 2026-05-03 21:11
Airport Hamad International Airport (OTHH)
Time Latitude Longitude Altitude Speed Heading
2026-05-03 20:15 25.24707 55.37978 25 ft 0 kts 30°
2026-05-03 20:15 25.24708 55.37978 25 ft 0 kts 30°
2026-05-03 20:16 25.24717 55.37984 23 ft 6 kts 30°
2026-05-03 20:16 25.24779 55.38020 22 ft 12 kts 16°
2026-05-03 20:16 25.24832 55.37981 22 ft 0 kts 301°
2026-05-03 20:17 25.24834 55.37976 22 ft 7 kts 301°
2026-05-03 20:17 25.25001 55.37675 24 ft 82 kts 302°
2026-05-03 20:18 25.25406 55.36948 22 ft 137 kts 301°
2026-05-03 20:18 25.25949 55.35951 376 ft 155 kts 300°
2026-05-03 20:18 25.26490 55.34918 1017 ft 156 kts 301°
2026-05-03 20:18 25.27042 55.33880 1632 ft 158 kts 302°
2026-05-03 20:19 25.27631 55.32809 1955 ft 169 kts 303°
2026-05-03 20:19 25.28286 55.31682 2332 ft 179 kts 305°
2026-05-03 20:19 25.28993 55.30517 2765 ft 186 kts 304°
2026-05-03 20:19 25.29339 55.29145 3316 ft 193 kts 269°
2026-05-03 20:20 25.29156 55.27586 3542 ft 216 kts 266°
2026-05-03 20:20 25.28972 55.25843 3818 ft 240 kts 266°
2026-05-03 20:20 25.28781 55.23923 4219 ft 260 kts 266°
2026-05-03 20:20 25.28578 55.21913 4970 ft 265 kts 266°
2026-05-03 20:21 25.28440 55.20571 5532 ft 266 kts 266°
2026-05-03 20:21 25.28158 55.17865 6630 ft 269 kts 267°
2026-05-03 20:21 25.27941 55.15801 7466 ft 271 kts 267°
2026-05-03 20:21 25.27722 55.13725 8279 ft 273 kts 267°
2026-05-03 20:22 25.27502 55.11627 9099 ft 276 kts 267°
2026-05-03 20:22 25.27356 55.10230 9653 ft 277 kts 267°
2026-05-03 20:22 25.27128 55.08089 10232 ft 289 kts 267°
2026-05-03 20:22 25.26888 55.05792 10454 ft 312 kts 266°
2026-05-03 20:23 25.26629 55.03331 10754 ft 329 kts 266°
2026-05-03 20:23 25.26356 55.00791 11340 ft 335 kts 266°
2026-05-03 20:23 25.26077 54.98222 12041 ft 338 kts 266°
2026-05-03 20:23 25.25793 54.95628 12744 ft 341 kts 266°
2026-05-03 20:24 25.25509 54.93013 13428 ft 345 kts 266°
2026-05-03 20:24 25.25223 54.90371 14059 ft 348 kts 266°
2026-05-03 20:24 25.24936 54.87698 14598 ft 352 kts 266°
2026-05-03 20:24 25.24647 54.85003 14980 ft 355 kts 266°
2026-05-03 20:25 25.24355 54.82284 15593 ft 357 kts 266°
2026-05-03 20:25 25.24064 54.79581 16164 ft 360 kts 266°
2026-05-03 20:25 25.23759 54.76786 16739 ft 364 kts 266°
2026-05-03 20:25 25.23457 54.74039 17277 ft 367 kts 266°
2026-05-03 20:26 25.23148 54.71225 17824 ft 371 kts 265°
2026-05-03 20:26 25.22836 54.68387 18331 ft 374 kts 265°
2026-05-03 20:26 25.22521 54.65521 18814 ft 377 kts 265°
2026-05-03 20:26 25.22204 54.62644 19310 ft 379 kts 265°
2026-05-03 20:27 25.21884 54.59740 19800 ft 382 kts 265°
2026-05-03 20:27 25.21563 54.56818 20329 ft 384 kts 265°
2026-05-03 20:27 25.21370 54.53878 20821 ft 384 kts 273°
2026-05-03 20:27 25.21666 54.50949 21319 ft 385 kts 283°
2026-05-03 20:28 25.22369 54.48081 21710 ft 387 kts 287°
2026-05-03 20:28 25.23104 54.45214 21810 ft 392 kts 287°
2026-05-03 20:28 25.23853 54.42272 21834 ft 402 kts 286°
2026-05-03 20:28 25.24606 54.39287 21831 ft 405 kts 286°
2026-05-03 20:29 25.25358 54.36287 21830 ft 405 kts 286°
2026-05-03 20:29 25.26110 54.33291 21830 ft 405 kts 286°
2026-05-03 20:29 25.26859 54.30296 21831 ft 405 kts 286°
2026-05-03 20:29 25.27606 54.27294 21826 ft 405 kts 286°
2026-05-03 20:30 25.28348 54.24296 21831 ft 405 kts 286°
2026-05-03 20:30 25.29091 54.21293 21831 ft 405 kts 286°
2026-05-03 20:30 25.29833 54.18295 21827 ft 405 kts 286°
2026-05-03 20:30 25.30575 54.15294 21836 ft 405 kts 286°
2026-05-03 20:31 25.31309 54.12289 21840 ft 405 kts 285°
2026-05-03 20:31 25.31988 54.09268 21840 ft 405 kts 284°
2026-05-03 20:31 25.32626 54.06233 21834 ft 405 kts 283°
2026-05-03 20:31 25.33246 54.03191 21835 ft 405 kts 283°
2026-05-03 20:32 25.33861 54.00156 21843 ft 405 kts 283°
2026-05-03 20:32 25.34485 53.97114 21829 ft 405 kts 283°
2026-05-03 20:32 25.35117 53.94077 21827 ft 405 kts 284°
2026-05-03 20:32 25.35756 53.91040 21827 ft 406 kts 284°
2026-05-03 20:33 25.36397 53.88007 21833 ft 406 kts 284°
2026-05-03 20:33 25.37035 53.85004 21837 ft 405 kts 284°
2026-05-03 20:33 25.37677 53.81967 21839 ft 405 kts 284°
2026-05-03 20:33 25.38316 53.78934 21837 ft 405 kts 284°
2026-05-03 20:34 25.38954 53.75901 21839 ft 405 kts 284°
2026-05-03 20:34 25.39591 53.72865 21828 ft 405 kts 284°
2026-05-03 20:34 25.40224 53.69833 21832 ft 405 kts 284°
2026-05-03 20:34 25.40856 53.66800 21831 ft 405 kts 284°
2026-05-03 20:35 25.41488 53.63764 21829 ft 405 kts 284°
2026-05-03 20:35 25.42079 53.60721 21832 ft 405 kts 279°
2026-05-03 20:35 25.42253 53.57610 21831 ft 407 kts 269°
2026-05-03 20:35 25.41897 53.54490 21831 ft 409 kts 259°
2026-05-03 20:36 25.41270 53.51418 21828 ft 410 kts 259°
2026-05-03 20:36 25.40647 53.48345 21831 ft 410 kts 259°
2026-05-03 20:36 25.40028 53.45263 21832 ft 410 kts 259°
2026-05-03 20:36 25.39415 53.42187 21829 ft 410 kts 259°
2026-05-03 20:37 25.38801 53.39110 21825 ft 410 kts 259°
2026-05-03 20:37 25.38187 53.36028 21834 ft 410 kts 260°
2026-05-03 20:37 25.37625 53.32985 21835 ft 409 kts 261°
2026-05-03 20:37 25.37107 53.29891 21833 ft 409 kts 262°
2026-05-03 20:38 25.36616 53.26789 21836 ft 409 kts 262°
2026-05-03 20:38 25.36135 53.23690 21826 ft 409 kts 262°
2026-05-03 20:38 25.35649 53.20591 21832 ft 409 kts 262°
2026-05-03 20:38 25.35152 53.17488 21831 ft 410 kts 262°
2026-05-03 20:39 25.34647 53.14391 21830 ft 410 kts 262°
2026-05-03 20:39 25.34134 53.11294 21826 ft 410 kts 262°
2026-05-03 20:39 25.33617 53.08193 21825 ft 410 kts 261°
2026-05-03 20:39 25.33099 53.05097 21826 ft 410 kts 261°
2026-05-03 20:40 25.32577 53.01995 21827 ft 410 kts 261°
2026-05-03 20:40 25.32057 52.98900 21828 ft 410 kts 261°
2026-05-03 20:40 25.31538 52.95798 21830 ft 410 kts 261°
2026-05-03 20:40 25.31021 52.92701 21832 ft 410 kts 261°
2026-05-03 20:41 25.30501 52.89597 21832 ft 410 kts 261°
2026-05-03 20:41 25.29983 52.86503 21832 ft 410 kts 261°
2026-05-03 20:41 25.29462 52.83401 21833 ft 410 kts 261°
2026-05-03 20:41 25.29396 52.83009 21827 ft 410 kts 261°
2026-05-03 20:42 25.29291 52.82380 21830 ft 410 kts 261°
2026-05-03 20:42 25.28770 52.79279 21830 ft 410 kts 261°
2026-05-03 20:42 25.28247 52.76182 21820 ft 410 kts 261°
2026-05-03 20:42 25.27727 52.73086 21832 ft 410 kts 261°
2026-05-03 20:43 25.27061 52.70023 21833 ft 412 kts 253°
2026-05-03 20:43 25.25925 52.67152 21833 ft 414 kts 243°
2026-05-03 20:43 25.24361 52.64470 21822 ft 416 kts 238°
2026-05-03 20:43 25.22728 52.61814 21824 ft 416 kts 238°
2026-05-03 20:44 25.21100 52.59168 21824 ft 417 kts 238°
2026-05-03 20:44 25.19470 52.56515 21825 ft 417 kts 238°
2026-05-03 20:44 25.17850 52.53875 21829 ft 410 kts 238°
2026-05-03 20:44 25.16268 52.51299 21846 ft 402 kts 238°
2026-05-03 20:45 25.14702 52.48752 21648 ft 401 kts 238°
2026-05-03 20:45 25.13122 52.46192 20694 ft 407 kts 237°
2026-05-03 20:45 25.11464 52.44056 20027 ft 412 kts 226°
2026-05-03 20:46 25.10231 52.42883 19655 ft 413 kts 220°
2026-05-03 20:46 25.07907 52.41015 19029 ft 412 kts 219°
2026-05-03 20:46 25.05596 52.39159 18447 ft 410 kts 219°
2026-05-03 20:46 25.03301 52.37308 17832 ft 408 kts 219°
2026-05-03 20:47 25.01024 52.35468 17217 ft 404 kts 219°
2026-05-03 20:47 24.98773 52.33650 16639 ft 399 kts 219°
2026-05-03 20:47 24.96554 52.31860 16262 ft 389 kts 219°
2026-05-03 20:47 24.94414 52.30138 16134 ft 373 kts 219°
2026-05-03 20:48 24.92376 52.28470 16009 ft 356 kts 224°
2026-05-03 20:48 24.90767 52.26508 15887 ft 336 kts 240°
2026-05-03 20:48 24.89784 52.24259 15758 ft 319 kts 255°
2026-05-03 20:48 24.89390 52.21902 15507 ft 309 kts 268°
2026-05-03 20:49 24.89228 52.19547 15170 ft 307 kts 267°
2026-05-03 20:49 24.89059 52.17217 14831 ft 304 kts 267°
2026-05-03 20:49 24.88889 52.14903 14500 ft 302 kts 267°
2026-05-03 20:49 24.88721 52.12611 14176 ft 299 kts 267°
2026-05-03 20:50 24.88637 52.10330 13859 ft 295 kts 277°
2026-05-03 20:50 24.89226 52.08198 13540 ft 292 kts 298°
2026-05-03 20:50 24.90515 52.06524 13162 ft 294 kts 320°
2026-05-03 20:50 24.92334 52.05476 12759 ft 298 kts 335°
2026-05-03 20:51 24.94264 52.04638 12345 ft 298 kts 335°
2026-05-03 20:51 24.96192 52.03805 12041 ft 295 kts 335°
2026-05-03 20:51 24.98098 52.02984 12011 ft 295 kts 335°
2026-05-03 20:51 25.00010 52.02155 12012 ft 295 kts 335°
2026-05-03 20:52 25.01928 52.01321 12012 ft 296 kts 335°
2026-05-03 20:52 25.03839 52.00487 12013 ft 296 kts 335°
2026-05-03 20:52 25.05750 51.99653 12014 ft 296 kts 335°
2026-05-03 20:52 25.07664 51.98818 12009 ft 296 kts 335°
2026-05-03 20:53 25.09579 51.97985 12009 ft 296 kts 335°
2026-05-03 20:53 25.11497 51.97149 12000 ft 296 kts 335°
2026-05-03 20:53 25.13416 51.96312 11597 ft 297 kts 335°
2026-05-03 20:53 25.15344 51.95469 11212 ft 298 kts 335°
2026-05-03 20:54 25.17264 51.94629 10841 ft 297 kts 335°
2026-05-03 20:54 25.21098 51.92956 10138 ft 295 kts 335°
2026-05-03 20:54 25.23005 51.92124 9796 ft 294 kts 335°
2026-05-03 20:55 25.24905 51.91294 9432 ft 293 kts 335°
2026-05-03 20:55 25.26803 51.90469 9070 ft 292 kts 335°
2026-05-03 20:55 25.28672 51.89667 8721 ft 291 kts 335°
2026-05-03 20:55 25.30557 51.88866 8371 ft 290 kts 335°
2026-05-03 20:56 25.32438 51.88068 8023 ft 289 kts 335°
2026-05-03 20:56 25.34232 51.87117 7684 ft 282 kts 319°
2026-05-03 20:56 25.35409 51.85457 7354 ft 274 kts 290°
2026-05-03 20:56 25.35662 51.83406 7047 ft 269 kts 261°
2026-05-03 20:57 25.35103 51.81455 6998 ft 268 kts 250°
2026-05-03 20:57 25.34438 51.79532 7008 ft 267 kts 250°
2026-05-03 20:57 25.33777 51.77615 7010 ft 266 kts 250°
2026-05-03 20:57 25.33118 51.75703 7007 ft 266 kts 250°
2026-05-03 20:58 25.32454 51.73788 7009 ft 267 kts 248°
2026-05-03 20:58 25.31363 51.72139 7006 ft 271 kts 220°
2026-05-03 20:58 25.29627 51.71298 6918 ft 281 kts 191°
2026-05-03 20:58 25.27683 51.71577 6633 ft 288 kts 163°
2026-05-03 20:59 25.25815 51.72392 6360 ft 288 kts 161°
2026-05-03 20:59 25.23981 51.73215 6088 ft 287 kts 161°
2026-05-03 20:59 25.22131 51.74048 5769 ft 287 kts 161°
2026-05-03 20:59 25.20279 51.74878 5422 ft 287 kts 161°
2026-05-03 21:00 25.18428 51.75702 5082 ft 287 kts 161°
2026-05-03 21:00 25.17805 51.75978 4967 ft 287 kts 161°
2026-05-03 21:00 25.14724 51.77334 4418 ft 285 kts 161°
2026-05-03 21:00 25.12889 51.78139 4204 ft 280 kts 161°
2026-05-03 21:01 25.11109 51.78923 4080 ft 271 kts 161°
2026-05-03 21:01 25.09383 51.79682 3964 ft 263 kts 161°
2026-05-03 21:01 25.07713 51.80411 3842 ft 254 kts 161°
2026-05-03 21:01 25.06079 51.81117 3614 ft 250 kts 161°
2026-05-03 21:02 25.04482 51.81804 3504 ft 244 kts 161°
2026-05-03 21:02 25.02897 51.82486 3502 ft 245 kts 161°
2026-05-03 21:02 25.01294 51.83110 3507 ft 243 kts 171°
2026-05-03 21:02 24.99632 51.83097 3501 ft 239 kts 197°
2026-05-03 21:03 24.98169 51.82312 3503 ft 233 kts 222°
2026-05-03 21:03 24.97173 51.80928 3506 ft 231 kts 247°
2026-05-03 21:03 24.96813 51.79245 3501 ft 230 kts 271°
2026-05-03 21:03 24.97137 51.77531 3507 ft 231 kts 295°
2026-05-03 21:04 24.98080 51.76099 3511 ft 233 kts 312°
2026-05-03 21:04 24.99205 51.74780 3511 ft 232 kts 311°
2026-05-03 21:04 25.00302 51.73477 3507 ft 232 kts 311°
2026-05-03 21:04 25.01387 51.72185 3503 ft 232 kts 311°
2026-05-03 21:05 25.02516 51.70919 3503 ft 228 kts 320°
2026-05-03 21:05 25.03846 51.70076 3505 ft 215 kts 336°
2026-05-03 21:05 25.05185 51.69493 3502 ft 200 kts 335°
2026-05-03 21:05 25.06466 51.68930 3503 ft 196 kts 335°
2026-05-03 21:06 25.07736 51.68371 3450 ft 197 kts 335°
2026-05-03 21:06 25.09007 51.67813 3263 ft 196 kts 336°
2026-05-03 21:06 25.10269 51.67259 3037 ft 192 kts 336°
2026-05-03 21:06 25.11456 51.66738 2810 ft 177 kts 336°
2026-05-03 21:07 25.12563 51.66252 2588 ft 165 kts 336°
2026-05-03 21:07 25.13593 51.65799 2379 ft 155 kts 336°
2026-05-03 21:07 25.14582 51.65364 2203 ft 151 kts 336°
2026-05-03 21:07 25.15549 51.64939 2027 ft 149 kts 335°
2026-05-03 21:08 25.16190 51.64657 1896 ft 149 kts 335°
2026-05-03 21:08 25.17134 51.64242 1733 ft 142 kts 336°
2026-05-03 21:08 25.18043 51.63842 1542 ft 140 kts 336°
2026-05-03 21:08 25.18948 51.63444 1358 ft 141 kts 338°
2026-05-03 21:09 25.19854 51.63045 1188 ft 141 kts 338°
2026-05-03 21:09 25.20767 51.62644 1001 ft 141 kts 339°
2026-05-03 21:09 25.21684 51.62240 837 ft 142 kts 341°
2026-05-03 21:09 25.22603 51.61835 663 ft 143 kts 341°
2026-05-03 21:10 25.23542 51.61421 509 ft 145 kts 341°
2026-05-03 21:10 25.24476 51.61010 319 ft 145 kts 341°
2026-05-03 21:10 25.25402 51.60594 88 ft 142 kts 342°
2026-05-03 21:10 25.26268 51.60223 27 ft 114 kts 338°
2026-05-03 21:11 25.26887 51.59953 27 ft 85 kts 337°
2026-05-03 21:11 25.27395 51.59724 27 ft 73 kts 339°
2026-05-03 21:11 25.27787 51.59553 24 ft 44 kts 338°
2026-05-03 21:11 25.27997 51.59512 27 ft 17 kts
2026-05-03 21:12 25.28087 51.59527 28 ft 8 kts 20°
2026-05-03 21:12 25.28107 51.59538 28 ft 0 kts 34°
2026-05-03 21:12 25.28107 51.59539 28 ft 1 kts 34°
2026-05-03 21:13 25.28115 51.59546 28 ft 2 kts 43°
2026-05-03 21:13 25.28122 51.59568 29 ft 4 kts 81°
2026-05-03 21:13 25.28112 51.59605 29 ft 6 kts 123°
2026-05-03 21:13 25.28067 51.59631 29 ft 8 kts 159°
2026-05-03 21:14 25.28006 51.59658 29 ft 11 kts 158°
2026-05-03 21:14 25.27923 51.59694 29 ft 14 kts 158°
2026-05-03 21:14 25.27820 51.59740 29 ft 18 kts 158°
2026-05-03 21:14 25.27715 51.59787 29 ft 16 kts 158°
2026-05-03 21:15 25.27601 51.59837 29 ft 19 kts 159°
2026-05-03 21:15 25.27467 51.59896 29 ft 22 kts 158°
2026-05-03 21:15 25.27332 51.59957 29 ft 16 kts 158°
2026-05-03 21:15 25.27324 51.59960 29 ft 0 kts 158°
2026-05-03 21:16 25.27324 51.59961 29 ft 0 kts 158°
2026-05-03 21:16 25.27311 51.59966 29 ft 3 kts 159°
2026-05-03 21:16 25.27278 51.59979 29 ft 7 kts 159°
2026-05-03 21:16 25.27225 51.60002 29 ft 10 kts 158°
2026-05-03 21:17 25.27150 51.60035 29 ft 13 kts 158°
2026-05-03 21:17 25.27087 51.60064 28 ft 16 kts 158°
2026-05-03 21:17 25.26929 51.60132 28 ft 20 kts 158°
2026-05-03 21:17 25.26798 51.60190 28 ft 18 kts 158°
2026-05-03 21:18 25.26684 51.60240 28 ft 14 kts 159°
2026-05-03 21:18 25.26585 51.60285 29 ft 17 kts 158°
2026-05-03 21:18 25.26502 51.60337 29 ft 11 kts 115°
2026-05-03 21:18 25.26506 51.60373 29 ft 0 kts 69°
2026-05-03 21:19 25.26506 51.60374 29 ft 1 kts 69°
2026-05-03 21:19 25.26527 51.60432 30 ft 14 kts 68°
2026-05-03 21:19 25.26568 51.60543 30 ft 17 kts 66°
2026-05-03 21:19 25.26585 51.60653 30 ft 15 kts 110°
2026-05-03 21:20 25.26555 51.60725 30 ft 11 kts 116°
2026-05-03 21:20 25.26520 51.60814 30 ft 14 kts 113°
2026-05-03 21:20 25.26456 51.60883 30 ft 14 kts 160°
2026-05-03 21:20 25.26371 51.60918 30 ft 8 kts 159°
2026-05-03 21:21 25.26353 51.60927 30 ft 0 kts 155°
2026-05-03 21:21 25.26351 51.60928 30 ft 1 kts 155°
2026-05-03 21:21 25.26332 51.60938 30 ft 5 kts 155°
2026-05-03 21:21 25.26293 51.60959 30 ft 8 kts 147°
2026-05-03 21:22 25.26281 51.61001 30 ft 0 kts 66°
2026-05-03 21:22 25.26282 51.61004 30 ft 2 kts 64°
2026-05-03 21:22 25.26298 51.61041 30 ft 6 kts 67°
2026-05-03 21:23 25.26316 51.61090 30 ft 7 kts 68°
2026-05-03 21:23 25.26328 51.61124 30 ft 2 kts 68°
2026-05-03 21:23 25.26337 51.61147 30 ft 4 kts 68°
2026-05-03 21:23 25.26340 51.61156 30 ft 0 kts 68°
2026-05-03 21:24 25.26340 51.61157 30 ft 0 kts 68°